Aérodrome :
LOGIN :

S'inscrire | Disclaimer

   EN    FR    IT 

 










Légende :    VFR   VFR Marginal   IFR   IFR Intensif   IFR Très Intensif
Visi : 
Plafond : 
>= 8 km
>= 3000ft
5 à 8 km
1000 à 3000 ft
1500m à 5 km
500 à 1000 ft
800 à 1500m
200 à 500 ft
< 800m
< 200 ft
Symboles :   Orages  Brouillard  Fortes neiges  Fortes précipitations  Vent > 20 kt
SIGMETs :   Divers  Orages  Givrage  Turbulence  Onde Orograph.  Cendres Volcan.






- Altitude de l'aérodrome : 404 ft
- Code IATA : WRO


EPWR - Wroclaw

DERNIER METAR :
  • 251600Z 35005KT 8000 NSC M01/M03 Q1021

METARs EXPIRÉS :
  • 251530Z 34004KT CAVOK M00/M03 Q1021
  • 251500Z 33005KT CAVOK 00/M03 Q1021
  • 251430Z 31007KT CAVOK 01/M02 Q1021
  • 251400Z 31008KT CAVOK 02/M02 Q1021
  • 251330Z 32008KT 9999 FEW013 02/M02 Q1021

TAF TAF EPWR
Valide du 25 à 15h jusqu'au 26 à 15h UTC


251430Z 2515/2615 31010KT CAVOK
PROB30
TEMPO 2515/2518 BKN013
BECMG 2515/2518 VRB02KT
TEMPO 2518/2606 3000 BR BKN009



MET'MAP, la Météo Aéronautique d'un coup d'oeil ! - Copyright ORBIFLY Décembre 2007 - Disclaimer

ORBIFLY MET'MAP TEAM :

Programmation & Développement : Alexandra Zaïnal
Sur une idée originale de : Baudouin d'Aumeries
Assistance à la programmation : Marc-Olivier Méhu
Soutien technique & logistique : Manuel Goepfert

Contact : metmap@orbifly.com




SOURCES & CREDITS :

   NOAA